Home   Weather   Mali i Perqarkës   Past weeks
Flag for Albania

Past Weather in Mali i Perqarkës, Albania — Yesterday and Last 2 Weeks

Now
81 °F

Passing clouds.


Feels Like: 83 °F
Forecast: 86 / 66 °F
Wind: 8 mph from North

Location: Tirana Airport

Current Time: Jun 18, 2019 at 7:30:12 pm

Latest Report: Jun 18, 2019 at 6:50 pm


Visibility: N/A

Pressure: 29.92 "Hg

Humidity: 66%

Dew Point: 68 °F

Location of Mali i PerqarkësLocation

Past Weather in Mali i Perqarkës — Graph

°F

Mali i Perqarkës Temperature Yesterday

Maximum temperature yesterday: 91 °F (at 3:20 pm)
Minimum temperature yesterday: 70 °F (at 5:20 am)
Average temperature yesterday: 79 °F

High & Low Weather Summary for the Past Weeks

 TemperatureHumidityPressure
High97 °F (Jun 15, 1:20 pm)94% (Jun 3, 9:50 pm)30.12 "Hg (Jun 3, 9:50 pm)
Low61 °F (Jun 3, 9:50 pm)36% (Jun 8, 4:50 pm)29.80 "Hg (Jun 10, 5:20 pm)
Average76 °F70%29.95 "Hg
* Reported Jun 3 6:20 pm — Jun 18 6:20 pm, Mali i Perqarkës. Weather by CustomWeather, © 2019

Note: Actual official high and low records may vary slightly from our data, if they occured in-between our weather recording intervals... More about our weather records

Advertising

Mali i Perqarkës Weather History for the Previous 24 Hours

Scroll right to see more
 ConditionsComfort  
Time TempWeatherWind HumidityBarometerVisibility
6:20 pm
Tue, Jun 18
81 °FPassing clouds.6 mph66%29.92 "HgN/A
5:50 pm82 °FPassing clouds.5 mph66%29.92 "HgN/A
5:20 pm81 °FPassing clouds.7 mph62%29.89 "HgN/A
4:50 pm82 °FScattered clouds.6 mph58%29.92 "HgN/A
4:20 pm84 °FScattered clouds.6 mph55%29.89 "HgN/A
3:50 pm86 °FPassing clouds.8 mph52%29.89 "HgN/A
3:20 pm86 °FPassing clouds.8 mph52%29.89 "HgN/A
2:50 pm88 °FPassing clouds.9 mph52%29.92 "HgN/A
2:20 pm88 °FPassing clouds.7 mph52%29.92 "HgN/A
1:50 pm86 °FPassing clouds.8 mph55%29.92 "Hg6 mi
1:20 pm90 °FScattered clouds.7 mph59%29.92 "HgN/A
12:20 pm90 °FPassing clouds.5 mph59%29.92 "Hg6 mi
11:50 am86 °FPassing clouds.3 mph55%29.92 "HgN/A
11:20 am86 °FPassing clouds.3 mph59%29.92 "HgN/A
10:50 am84 °FPassing clouds.5 mph58%29.95 "HgN/A
10:20 am82 °FSunny.3 mph62%29.95 "Hg10 mi
9:50 am82 °FPassing clouds.3 mph62%29.95 "HgN/A
9:20 am82 °FSunny.No wind55%29.95 "Hg10 mi
8:50 am82 °FSunny.No wind58%29.95 "Hg10 mi
8:20 am77 °FPassing clouds.3 mph65%29.95 "HgN/A
7:50 am75 °FSunny.3 mph69%29.95 "Hg10 mi
7:20 am75 °FSunny.3 mph74%29.92 "Hg10 mi
6:50 am72 °FPartly sunny.5 mph78%29.92 "HgN/A
6:20 am70 °FPartly sunny.5 mph88%29.92 "HgN/A
5:50 am70 °FPartly sunny.3 mph88%29.92 "HgN/A
5:20 am70 °FScattered clouds.3 mph83%29.92 "HgN/A
4:50 am70 °FPassing clouds.3 mph88%29.92 "HgN/A
4:20 am70 °FClear.5 mph88%29.89 "Hg10 mi
3:59 am70 °FClear.1 mph88%29.89 "Hg10 mi
3:20 am70 °FPassing clouds.2 mph94%29.89 "HgN/A
2:50 am70 °FClear.3 mph94%29.89 "Hg10 mi
2:20 am72 °FPassing clouds.5 mph88%29.89 "HgN/A
1:50 am72 °FClear.3 mph88%29.92 "Hg10 mi
1:20 am72 °FPassing clouds.3 mph88%29.92 "HgN/A
12:50 am73 °FPassing clouds.3 mph83%29.92 "HgN/A
12:20 am72 °FPartly cloudy.No wind88%29.92 "HgN/A
11:50 pm
Mon, Jun 17
73 °FPartly cloudy.5 mph83%29.89 "HgN/A
11:20 pm73 °FOvercast.2 mph83%29.92 "HgN/A
10:50 pm72 °FPassing clouds.8 mph88%29.89 "HgN/A
10:20 pm75 °FPassing clouds.3 mph74%29.89 "HgN/A
9:50 pm75 °FPassing clouds.2 mph83%29.89 "HgN/A
9:20 pm75 °FPassing clouds.2 mph83%29.92 "HgN/A
8:50 pm75 °FThundershowers. Overcast.7 mph78%29.92 "HgN/A
8:20 pm81 °FPartly cloudy.3 mph70%29.89 "HgN/A
7:50 pm79 °FPartly sunny.3 mph70%29.89 "HgN/A
7:20 pm81 °FScattered clouds.3 mph66%29.86 "HgN/A
Weather by CustomWeather, © 2019

See weather overview